| time (UTC) | temp F | wind direction | speed knots | gust knots | rain 1hr in | rain 24hr in | rain mn in | humidity % | barometer mb |
| 20260905130330 | 51 | 106 | 0.0 | 0.0 | 0.00 | 0.00 | 0.00 | 91 | 1019.6 |
| 20260905125826 | 51 | 106 | 0.0 | 0.0 | 0.00 | 0.00 | 0.00 | 91 | 1019.6 |
| 20260905125321 | 51 | 106 | 0.0 | 0.0 | 0.00 | 0.00 | 0.00 | 91 | 1019.6 |
| 20260905124817 | 51 | 77 | 0.0 | 0.9 | 0.00 | 0.00 | 0.00 | 91 | 1019.6 |
| 20260905124313 | 51 | 105 | 0.0 | 0.0 | 0.00 | 0.00 | 0.00 | 91 | 1019.6 |
| 20260905123808 | 51 | 88 | 0.0 | 0.9 | 0.00 | 0.00 | 0.00 | 91 | 1019.6 |
| 20260905123305 | 51 | 104 | 0.0 | 0.0 | 0.00 | 0.00 | 0.00 | 91 | 1019.6 |
| 20260905122804 | 51 | 104 | 0.0 | 0.0 | 0.00 | 0.00 | 0.00 | 91 | 1019.6 |
| 20260905122306 | 51 | 102 | 0.0 | 0.0 | 0.00 | 0.00 | 0.00 | 91 | 1019.6 |
| 20260905121759 | 51 | 104 | 0.0 | 0.0 | 0.00 | 0.00 | 0.00 | 91 | 1019.6 |
| 20260905121256 | 51 | 104 | 0.0 | 0.0 | 0.00 | 0.00 | 0.00 | 91 | 1019.6 |
| 20260905120754 | 51 | 103 | 0.0 | 0.0 | 0.00 | 0.00 | 0.00 | 91 | 1019.6 |
| 20260905120253 | 51 | 104 | 0.0 | 0.0 | 0.00 | 0.00 | 0.00 | 91 | 1019.2 |
| 20260905115748 | 51 | 104 | 0.0 | 0.0 | 0.00 | 0.00 | 0.00 | 91 | 1019.6 |
| 20260905115243 | 51 | 118 | 0.0 | 0.0 | 0.00 | 0.00 | 0.00 | 91 | 1019.2 |
| 20260905114742 | 51 | 127 | 0.0 | 0.0 | 0.00 | 0.00 | 0.00 | 91 | 1019.2 |
| 20260905114241 | 51 | 124 | 0.0 | 0.0 | 0.00 | 0.00 | 0.00 | 91 | 1019.2 |
| 20260905113740 | 51 | 132 | 0.0 | 0.0 | 0.00 | 0.00 | 0.00 | 91 | 1019.2 |
| 20260905113236 | 51 | 113 | 0.0 | 0.0 | 0.00 | 0.00 | 0.00 | 90 | 1019.2 |
| 20260905112731 | 51 | 113 | 0.0 | 0.0 | 0.00 | 0.00 | 0.00 | 90 | 1019.2 |
| 20260905112226 | 51 | 113 | 0.0 | 0.0 | 0.00 | 0.00 | 0.00 | 90 | 1019.6 |
| 20260905111721 | 51 | 114 | 0.0 | 0.0 | 0.00 | 0.00 | 0.00 | 90 | 1019.2 |
| 20260905111215 | 52 | 113 | 0.0 | 0.0 | 0.00 | 0.00 | 0.00 | 90 | 1019.2 |
| 20260905110714 | 52 | 113 | 0.0 | 0.0 | 0.00 | 0.00 | 0.00 | 90 | 1019.2 |
| 20260905110209 | 52 | 99 | 0.0 | 0.9 | 0.00 | 0.00 | 0.00 | 90 | 1019.2 |
| 20260905105705 | 52 | 29 | 0.0 | 0.9 | 0.00 | 0.00 | 0.00 | 90 | 1019.2 |
| 20260905105203 | 52 | 119 | 0.0 | 0.0 | 0.00 | 0.00 | 0.00 | 90 | 1019.2 |
| 20260905104658 | 52 | 93 | 0.0 | 0.0 | 0.00 | 0.00 | 0.00 | 90 | 1019.2 |
| 20260905104154 | 52 | 112 | 0.0 | 0.0 | 0.00 | 0.00 | 0.00 | 90 | 1019.2 |
| 20260905103649 | 52 | 124 | 0.0 | 0.0 | 0.00 | 0.00 | 0.00 | 90 | 1019.2 |
| 20260905103145 | 52 | 128 | 0.0 | 0.0 | 0.00 | 0.00 | 0.00 | 90 | 1019.2 |
| 20260905102641 | 53 | 108 | 0.0 | 1.7 | 0.00 | 0.00 | 0.00 | 90 | 1019.2 |
| 20260905102137 | 53 | 110 | 0.0 | 1.7 | 0.00 | 0.00 | 0.00 | 91 | 1019.2 |
| 20260905101636 | 53 | 98 | 0.0 | 0.9 | 0.00 | 0.00 | 0.00 | 91 | 1019.2 |
| 20260905101134 | 53 | 105 | 0.9 | 1.7 | 0.00 | 0.00 | 0.00 | 91 | 1019.2 |
| 20260905100630 | 53 | 113 | 0.0 | 0.0 | 0.00 | 0.00 | 0.00 | 91 | 1019.2 |
| 20260905100125 | 53 | 95 | 0.0 | 0.0 | 0.00 | 0.00 | 0.00 | 91 | 1019.2 |
| 20260905095619 | 53 | 97 | 0.0 | 0.0 | 0.00 | 0.00 | 0.00 | 91 | 1019.2 |
| 20260905095114 | 53 | 87 | 0.0 | 0.0 | 0.00 | 0.00 | 0.00 | 91 | 1019.2 |
| 20260905094610 | 53 | 106 | 0.0 | 0.0 | 0.00 | 0.00 | 0.00 | 91 | 1018.9 |
| 20260905094108 | 53 | 67 | 0.0 | 0.0 | 0.00 | 0.00 | 0.00 | 91 | 1019.2 |
| 20260905093603 | 53 | 67 | 0.0 | 0.0 | 0.00 | 0.00 | 0.00 | 91 | 1019.2 |
| 20260905093100 | 53 | 67 | 0.0 | 0.0 | 0.00 | 0.00 | 0.00 | 91 | 1019.2 |
| 20260905092559 | 53 | 67 | 0.0 | 0.0 | 0.00 | 0.00 | 0.00 | 91 | 1019.2 |
| 20260905092055 | 53 | 67 | 0.0 | 0.9 | 0.00 | 0.00 | 0.00 | 91 | 1019.2 |
| 20260905091554 | 53 | 69 | 0.0 | 0.9 | 0.00 | 0.00 | 0.00 | 91 | 1019.2 |
| 20260905091048 | 53 | 79 | 0.9 | 1.7 | 0.00 | 0.00 | 0.00 | 91 | 1019.2 |
| 20260905090543 | 53 | 104 | 0.0 | 0.9 | 0.00 | 0.00 | 0.00 | 91 | 1019.6 |
| 20260905090038 | 53 | 113 | 0.9 | 1.7 | 0.00 | 0.00 | 0.00 | 90 | 1019.2 |
| 20260905085536 | 53 | 107 | 0.0 | 0.0 | 0.00 | 0.00 | 0.00 | 90 | 1019.2 |
| 20260905085032 | 53 | 112 | 0.0 | 0.0 | 0.00 | 0.00 | 0.00 | 90 | 1019.2 |
| 20260905084531 | 53 | 103 | 0.0 | 0.0 | 0.00 | 0.00 | 0.00 | 90 | 1019.2 |
| 20260905084027 | 53 | 110 | 0.0 | 0.0 | 0.00 | 0.00 | 0.00 | 90 | 1019.2 |
| 20260905083516 | 53 | 109 | 0.0 | 0.0 | 0.00 | 0.00 | 0.00 | 90 | 1019.2 |
| 20260905083012 | 53 | 132 | 0.9 | 0.9 | 0.00 | 0.00 | 0.00 | 90 | 1019.2 |
| 20260905082502 | 53 | 115 | 0.0 | 0.0 | 0.00 | 0.00 | 0.00 | 89 | 1018.9 |
| 20260905081957 | 54 | 123 | 0.0 | 0.0 | 0.00 | 0.00 | 0.00 | 89 | 1018.9 |
| 20260905081452 | 54 | 121 | 0.0 | 0.0 | 0.00 | 0.00 | 0.00 | 89 | 1019.2 |
| 20260905080951 | 54 | 111 | 0.0 | 0.0 | 0.00 | 0.00 | 0.00 | 89 | 1018.9 |
| 20260905080446 | 54 | 293 | 0.0 | 0.9 | 0.00 | 0.00 | 0.00 | 88 | 1018.9 |
| 20260905075945 | 54 | 96 | 0.9 | 0.9 | 0.00 | 0.00 | 0.00 | 88 | 1018.9 |
| 20260905075440 | 55 | 283 | 0.0 | 0.9 | 0.00 | 0.00 | 0.00 | 88 | 1019.2 |
| 20260905074938 | 55 | 116 | 0.0 | 0.9 | 0.00 | 0.00 | 0.00 | 88 | 1019.2 |
| 20260905074434 | 54 | 102 | 0.0 | 0.0 | 0.00 | 0.00 | 0.00 | 88 | 1018.9 |
| 20260905073930 | 54 | 92 | 0.0 | 0.0 | 0.00 | 0.00 | 0.00 | 88 | 1018.9 |
| 20260905073424 | 55 | 111 | 0.0 | 0.9 | 0.00 | 0.00 | 0.00 | 88 | 1018.9 |
| 20260905072920 | 55 | 112 | 0.0 | 0.9 | 0.00 | 0.00 | 0.00 | 88 | 1018.9 |
| 20260905072415 | 55 | 95 | 0.0 | 0.0 | 0.00 | 0.00 | 0.00 | 88 | 1018.9 |
| 20260905071911 | 55 | 112 | 0.0 | 0.0 | 0.00 | 0.00 | 0.00 | 87 | 1018.9 |
| 20260905071407 | 55 | 109 | 0.0 | 0.0 | 0.00 | 0.00 | 0.00 | 87 | 1018.9 |
| 20260905070901 | 55 | 113 | 0.0 | 0.0 | 0.00 | 0.00 | 0.00 | 87 | 1019.2 |
| 20260905070357 | 55 | 112 | 0.0 | 0.0 | 0.00 | 0.00 | 0.00 | 87 | 1018.9 |
| 20260905065857 | 55 | 114 | 0.0 | 0.9 | 0.00 | 0.07 | 0.07 | 87 | 1018.9 |
| 20260905065355 | 55 | 128 | 0.0 | 0.0 | 0.00 | 0.07 | 0.07 | 87 | 1018.9 |
| 20260905064851 | 55 | 127 | 0.0 | 0.0 | 0.00 | 0.07 | 0.07 | 86 | 1018.9 |
| 20260905064346 | 55 | 137 | 0.0 | 0.0 | 0.00 | 0.07 | 0.07 | 86 | 1018.9 |
| 20260905063844 | 55 | 116 | 0.0 | 0.0 | 0.00 | 0.07 | 0.07 | 86 | 1018.9 |
| 20260905063340 | 55 | 108 | 0.0 | 0.0 | 0.00 | 0.07 | 0.07 | 86 | 1018.5 |
| 20260905062836 | 55 | 108 | 0.0 | 0.0 | 0.00 | 0.07 | 0.07 | 86 | 1018.5 |
| 20260905062331 | 55 | 123 | 0.0 | 0.0 | 0.00 | 0.07 | 0.07 | 85 | 1018.9 |
| 20260905061826 | 55 | 132 | 0.0 | 0.0 | 0.00 | 0.07 | 0.07 | 85 | 1018.5 |
| 20260905061326 | 55 | 132 | 0.0 | 0.0 | 0.00 | 0.07 | 0.07 | 85 | 1018.5 |
| 20260905060820 | 55 | 130 | 0.0 | 0.0 | 0.00 | 0.07 | 0.07 | 85 | 1018.5 |
| 20260905060317 | 56 | 132 | 0.0 | 0.0 | 0.00 | 0.07 | 0.07 | 85 | 1018.9 |
| 20260905055816 | 56 | 124 | 0.0 | 0.9 | 0.00 | 0.07 | 0.07 | 85 | 1018.9 |
| 20260905055311 | 56 | 130 | 0.0 | 0.0 | 0.00 | 0.07 | 0.07 | 84 | 1018.5 |
| 20260905054811 | 56 | 128 | 0.0 | 0.0 | 0.00 | 0.07 | 0.07 | 84 | 1018.5 |
| 20260905054308 | 56 | 129 | 0.0 | 0.0 | 0.00 | 0.07 | 0.07 | 84 | 1018.5 |
| 20260905053806 | 56 | 121 | 0.0 | 0.0 | 0.00 | 0.07 | 0.07 | 84 | 1018.9 |
| 20260905053301 | 56 | 121 | 0.0 | 0.0 | 0.00 | 0.07 | 0.07 | 84 | 1018.9 |
| 20260905052756 | 56 | 114 | 0.0 | 0.0 | 0.00 | 0.07 | 0.07 | 83 | 1018.5 |
| 20260905052250 | 56 | 114 | 0.0 | 0.0 | 0.00 | 0.07 | 0.07 | 83 | 1018.9 |
| 20260905051750 | 57 | 105 | 0.9 | 0.9 | 0.00 | 0.07 | 0.07 | 83 | 1018.5 |
| 20260905051247 | 57 | 104 | 0.0 | 0.9 | 0.00 | 0.07 | 0.07 | 83 | 1018.5 |
| 20260905050743 | 57 | 112 | 0.0 | 0.0 | 0.00 | 0.07 | 0.07 | 82 | 1018.5 |
| 20260905050240 | 57 | 80 | 0.0 | 1.7 | 0.00 | 0.07 | 0.07 | 82 | 1018.5 |
| 20260905045739 | 57 | 156 | 0.0 | 0.9 | 0.00 | 0.07 | 0.07 | 82 | 1018.5 |
| 20260905045235 | 57 | 151 | 0.0 | 0.9 | 0.00 | 0.07 | 0.07 | 82 | 1018.9 |
| 20260905044730 | 57 | 134 | 0.0 | 0.9 | 0.00 | 0.07 | 0.07 | 82 | 1018.9 |
| 20260905044225 | 57 | 112 | 0.0 | 0.0 | 0.00 | 0.07 | 0.07 | 82 | 1018.9 |
| 20260905043723 | 57 | 58 | 0.0 | 0.0 | 0.00 | 0.07 | 0.07 | 82 | 1018.9 |
| 20260905043218 | 57 | 99 | 0.0 | 0.0 | 0.00 | 0.07 | 0.07 | 81 | 1018.5 |
| 20260905042713 | 57 | 111 | 0.0 | 0.0 | 0.00 | 0.07 | 0.07 | 81 | 1018.9 |
| 20260905042212 | 57 | 112 | 0.0 | 0.0 | 0.00 | 0.07 | 0.07 | 81 | 1019.2 |
| 20260905041708 | 57 | 140 | 0.0 | 0.0 | 0.00 | 0.07 | 0.07 | 81 | 1018.9 |
| 20260905041203 | 58 | 127 | 0.0 | 0.0 | 0.00 | 0.07 | 0.07 | 80 | 1018.9 |
| 20260905040658 | 58 | 127 | 0.0 | 0.0 | 0.00 | 0.07 | 0.07 | 80 | 1018.9 |
| 20260905040156 | 58 | 123 | 0.0 | 0.0 | 0.00 | 0.07 | 0.07 | 79 | 1018.9 |
| 20260905035651 | 58 | 123 | 0.0 | 0.0 | 0.00 | 0.07 | 0.07 | 79 | 1018.9 |
| 20260905035148 | 58 | 120 | 0.0 | 0.0 | 0.00 | 0.07 | 0.07 | 78 | 1018.9 |
| 20260905034643 | 58 | 120 | 0.0 | 0.0 | 0.00 | 0.07 | 0.07 | 78 | 1018.9 |
| 20260905034143 | 58 | 128 | 0.0 | 0.0 | 0.00 | 0.07 | 0.07 | 78 | 1018.5 |
| 20260905033642 | 58 | 125 | 0.0 | 0.0 | 0.00 | 0.07 | 0.07 | 78 | 1018.5 |
| 20260905033138 | 59 | 124 | 0.0 | 0.0 | 0.00 | 0.07 | 0.07 | 78 | 1018.5 |
| 20260905032637 | 59 | 124 | 0.0 | 0.0 | 0.00 | 0.07 | 0.07 | 77 | 1018.5 |
| 20260905032132 | 59 | 124 | 0.0 | 0.0 | 0.00 | 0.07 | 0.07 | 77 | 1018.9 |
| 20260905031628 | 59 | 124 | 0.0 | 0.0 | 0.00 | 0.07 | 0.07 | 76 | 1018.5 |
| 20260905031123 | 60 | 124 | 0.0 | 0.0 | 0.00 | 0.07 | 0.07 | 76 | 1018.5 |
| 20260905030618 | 60 | 124 | 0.0 | 0.0 | 0.00 | 0.07 | 0.07 | 76 | 1018.5 |
| 20260905030114 | 60 | 124 | 0.0 | 0.0 | 0.00 | 0.07 | 0.07 | 75 | 1018.5 |
| 20260905025608 | 61 | 124 | 0.0 | 0.0 | 0.00 | 0.07 | 0.07 | 73 | 1018.5 |
| 20260905025104 | 61 | 124 | 0.0 | 0.0 | 0.00 | 0.07 | 0.07 | 73 | 1018.5 |
| 20260905024600 | 61 | 132 | 0.0 | 0.0 | 0.00 | 0.07 | 0.07 | 73 | 1018.2 |
| 20260905024055 | 62 | 136 | 0.0 | 0.0 | 0.00 | 0.07 | 0.07 | 73 | 1018.2 |
| 20260905023549 | 62 | 136 | 0.0 | 0.0 | 0.00 | 0.07 | 0.07 | 72 | 1018.2 |
| 20260905023044 | 62 | 125 | 0.0 | 0.9 | 0.00 | 0.07 | 0.07 | 71 | 1018.5 |
| 20260905022544 | 62 | 108 | 0.0 | 0.9 | 0.00 | 0.07 | 0.07 | 71 | 1018.2 |
| 20260905022039 | 63 | 100 | 0.0 | 0.9 | 0.00 | 0.07 | 0.07 | 70 | 1018.2 |
| 20260905021538 | 63 | 70 | 0.0 | 1.7 | 0.00 | 0.07 | 0.07 | 70 | 1018.2 |
| 20260905021034 | 64 | 91 | 0.0 | 0.9 | 0.00 | 0.07 | 0.07 | 69 | 1018.2 |
| 20260905020533 | 64 | 120 | 0.0 | 0.0 | 0.00 | 0.07 | 0.07 | 69 | 1017.9 |
| 20260905020029 | 64 | 129 | 0.0 | 1.7 | 0.00 | 0.07 | 0.07 | 69 | 1017.9 |
| 20260905015526 | 65 | 101 | 0.0 | 1.7 | 0.00 | 0.07 | 0.07 | 67 | 1018.2 |
| 20260905015021 | 65 | 91 | 0.9 | 1.7 | 0.00 | 0.07 | 0.07 | 68 | 1017.9 |
| 20260905014516 | 65 | 144 | 0.0 | 0.0 | 0.00 | 0.07 | 0.07 | 68 | 1017.9 |
| 20260905014012 | 64 | 189 | 0.0 | 0.0 | 0.00 | 0.07 | 0.07 | 68 | 1017.9 |
| 20260905013508 | 65 | 101 | 0.0 | 0.0 | 0.00 | 0.07 | 0.07 | 67 | 1017.9 |
| 20260905013004 | 65 | 61 | 0.0 | 0.9 | 0.00 | 0.07 | 0.07 | 67 | 1017.9 |
| 20260905012458 | 65 | 322 | 1.7 | 2.6 | 0.00 | 0.07 | 0.07 | 67 | 1017.9 |
| 20260905011955 | 66 | 177 | 0.0 | 1.7 | 0.00 | 0.07 | 0.07 | 66 | 1017.9 |
| 20260905011450 | 66 | 94 | 0.9 | 0.9 | 0.00 | 0.07 | 0.07 | 65 | 1017.9 |
| 20260905010946 | 66 | 101 | 0.0 | 0.9 | 0.00 | 0.07 | 0.07 | 65 | 1017.9 |
| 20260905010441 | 68 | 99 | 0.0 | 0.9 | 0.00 | 0.07 | 0.07 | 63 | 1017.9 |
| 20260905005937 | 68 | 121 | 0.0 | 0.9 | 0.00 | 0.07 | 0.07 | 62 | 1017.5 |
| 20260905005432 | 67 | 101 | 0.0 | 0.9 | 0.00 | 0.07 | 0.07 | 64 | 1017.5 |
| 20260905004933 | 66 | 117 | 0.9 | 1.7 | 0.00 | 0.07 | 0.07 | 66 | 1017.5 |
| 20260905004427 | 65 | 269 | 0.9 | 1.7 | 0.00 | 0.07 | 0.07 | 66 | 1017.5 |
| 20260905003922 | 65 | 257 | 1.7 | 3.5 | 0.00 | 0.07 | 0.07 | 67 | 1017.5 |
| 20260905003419 | 65 | 51 | 0.9 | 2.6 | 0.00 | 0.07 | 0.07 | 67 | 1017.5 |
| 20260905002914 | 64 | 61 | 1.7 | 2.6 | 0.00 | 0.07 | 0.07 | 69 | 1017.2 |
| 20260905002413 | 65 | 119 | 0.0 | 1.7 | 0.00 | 0.07 | 0.07 | 68 | 1017.2 |
| 20260905001908 | 65 | 96 | 0.0 | 0.9 | 0.00 | 0.07 | 0.07 | 66 | 1017.2 |
| 20260905001403 | 65 | 89 | 0.0 | 0.9 | 0.00 | 0.07 | 0.07 | 67 | 1017.2 |
| 20260905000857 | 66 | 359 | 2.6 | 5.2 | 0.00 | 0.07 | 0.07 | 65 | 1017.2 |
| 20260905000355 | 67 | 0 | 1.7 | 1.7 | 0.00 | 0.07 | 0.07 | 61 | 1017.2 |
| 20260904235849 | 67 | 88 | 0.0 | 2.6 | 0.00 | 0.07 | 0.07 | 60 | 1017.2 |
| 20260904235344 | 68 | 80 | 0.9 | 2.6 | 0.00 | 0.07 | 0.07 | 58 | 1017.2 |
| 20260904234844 | 68 | 355 | 2.6 | 3.5 | 0.00 | 0.07 | 0.07 | 58 | 1016.9 |
| 20260904234339 | 69 | 29 | 2.6 | 2.6 | 0.00 | 0.07 | 0.07 | 55 | 1016.9 |
| 20260904233835 | 69 | 9 | 1.7 | 2.6 | 0.00 | 0.07 | 0.07 | 56 | 1017.2 |
| 20260904233330 | 69 | 65 | 1.7 | 2.6 | 0.00 | 0.07 | 0.07 | 57 | 1017.2 |
| 20260904232827 | 69 | 355 | 1.7 | 2.6 | 0.00 | 0.07 | 0.07 | 59 | 1016.9 |
| 20260904232323 | 68 | 353 | 1.7 | 1.7 | 0.00 | 0.07 | 0.07 | 61 | 1016.9 |
| 20260904231819 | 70 | 357 | 1.7 | 5.2 | 0.00 | 0.07 | 0.07 | 61 | 1016.9 |
| 20260904231313 | 69 | 104 | 0.0 | 0.9 | 0.00 | 0.07 | 0.07 | 59 | 1016.9 |
| 20260904230808 | 69 | 146 | 0.0 | 2.6 | 0.00 | 0.07 | 0.07 | 61 | 1016.9 |
| 20260904230306 | 67 | 122 | 0.0 | 1.7 | 0.00 | 0.07 | 0.07 | 65 | 1016.9 |
| 20260904225802 | 67 | 302 | 0.9 | 3.5 | 0.00 | 0.07 | 0.07 | 64 | 1016.9 |
| 20260904225255 | 67 | 53 | 1.7 | 3.5 | 0.00 | 0.07 | 0.07 | 65 | 1016.9 |
| 20260904224754 | 67 | 14 | 0.9 | 1.7 | 0.00 | 0.07 | 0.07 | 65 | 1016.9 |
| 20260904224250 | 67 | 2 | 1.7 | 3.5 | 0.00 | 0.07 | 0.07 | 65 | 1016.5 |
| 20260904223749 | 67 | 357 | 1.7 | 3.5 | 0.00 | 0.07 | 0.07 | 65 | 1016.9 |
| 20260904223244 | 67 | 208 | 0.9 | 2.6 | 0.00 | 0.07 | 0.07 | 65 | 1016.9 |
| 20260904222741 | 67 | 19 | 2.6 | 3.5 | 0.00 | 0.07 | 0.07 | 64 | 1016.9 |
| 20260904222235 | 67 | 16 | 1.7 | 6.1 | 0.00 | 0.07 | 0.07 | 62 | 1016.9 |
| 20260904221735 | 68 | 350 | 0.9 | 3.5 | 0.00 | 0.07 | 0.07 | 62 | 1016.9 |
| 20260904221230 | 67 | 147 | 1.7 | 1.7 | 0.00 | 0.07 | 0.07 | 62 | 1016.5 |
| 20260904220725 | 67 | 44 | 1.7 | 2.6 | 0.00 | 0.07 | 0.07 | 63 | 1016.5 |
| 20260904220220 | 67 | 25 | 0.9 | 2.6 | 0.00 | 0.07 | 0.07 | 62 | 1016.9 |
| 20260904215720 | 68 | 24 | 1.7 | 2.6 | 0.00 | 0.07 | 0.07 | 61 | 1016.5 |
| 20260904215215 | 68 | 51 | 0.9 | 2.6 | 0.00 | 0.07 | 0.07 | 62 | 1016.9 |
| 20260904214710 | 67 | 20 | 2.6 | 5.2 | 0.00 | 0.07 | 0.07 | 61 | 1016.5 |
| 20260904214206 | 67 | 67 | 2.6 | 3.5 | 0.00 | 0.07 | 0.07 | 63 | 1016.9 |
| 20260904213704 | 66 | 71 | 1.7 | 3.5 | 0.00 | 0.07 | 0.07 | 63 | 1016.9 |
| 20260904213200 | 66 | 9 | 2.6 | 5.2 | 0.00 | 0.07 | 0.07 | 65 | 1016.5 |
| 20260904212655 | 67 | 148 | 1.7 | 3.5 | 0.00 | 0.07 | 0.07 | 62 | 1016.9 |
| 20260904212149 | 66 | 55 | 0.9 | 3.5 | 0.00 | 0.07 | 0.07 | 63 | 1016.9 |
| 20260904211644 | 67 | 39 | 1.7 | 3.5 | 0.00 | 0.07 | 0.07 | 62 | 1016.9 |
| 20260904211140 | 68 | 52 | 1.7 | 3.5 | 0.00 | 0.07 | 0.07 | 61 | 1016.9 |
| 20260904210639 | 68 | 76 | 0.9 | 5.2 | 0.00 | 0.07 | 0.07 | 62 | 1016.9 |
| 20260904210135 | 68 | 258 | 2.6 | 5.2 | 0.00 | 0.07 | 0.07 | 61 | 1016.5 |
| 20260904205631 | 67 | 139 | 0.9 | 1.7 | 0.00 | 0.07 | 0.07 | 64 | 1016.5 |
| 20260904205127 | 66 | 186 | 1.7 | 2.6 | 0.00 | 0.07 | 0.07 | 66 | 1016.5 |
| 20260904204623 | 66 | 90 | 0.9 | 1.7 | 0.00 | 0.07 | 0.07 | 66 | 1016.5 |
| 20260904204119 | 66 | 120 | 0.9 | 2.6 | 0.00 | 0.07 | 0.07 | 68 | 1016.5 |
| 20260904203614 | 66 | 88 | 1.7 | 5.2 | 0.00 | 0.07 | 0.07 | 68 | 1016.5 |
| 20260904203111 | 67 | 89 | 0.9 | 2.6 | 0.00 | 0.07 | 0.07 | 66 | 1016.5 |
| 20260904202606 | 66 | 238 | 0.9 | 2.6 | 0.00 | 0.07 | 0.07 | 69 | 1016.5 |
| 20260904202102 | 65 | 61 | 0.9 | 0.9 | 0.00 | 0.07 | 0.07 | 69 | 1016.2 |
| 20260904201556 | 64 | 101 | 0.9 | 2.6 | 0.00 | 0.07 | 0.07 | 71 | 1016.5 |
| 20260904201052 | 63 | 44 | 2.6 | 5.2 | 0.00 | 0.07 | 0.07 | 72 | 1016.5 |
| 20260904200550 | 63 | 51 | 1.7 | 5.2 | 0.00 | 0.07 | 0.07 | 73 | 1016.2 |
| 20260904200045 | 63 | 34 | 2.6 | 6.1 | 0.00 | 0.07 | 0.07 | 72 | 1016.2 |
| 20260904195543 | 63 | 325 | 0.9 | 2.6 | 0.00 | 0.07 | 0.07 | 72 | 1016.5 |
| 20260904195038 | 64 | 3 | 1.7 | 2.6 | 0.00 | 0.07 | 0.07 | 70 | 1016.5 |
| 20260904194533 | 62 | 331 | 1.7 | 2.6 | 0.00 | 0.07 | 0.07 | 73 | 1016.5 |
| 20260904194027 | 61 | 46 | 2.6 | 6.1 | 0.00 | 0.07 | 0.07 | 74 | 1016.5 |
| 20260904193522 | 62 | 3 | 5.2 | 7.0 | 0.00 | 0.07 | 0.07 | 71 | 1016.5 |
| 20260904193019 | 63 | 27 | 2.6 | 3.5 | 0.00 | 0.07 | 0.07 | 71 | 1016.2 |
| 20260904192518 | 63 | 347 | 1.7 | 3.5 | 0.00 | 0.07 | 0.07 | 70 | 1016.5 |
| 20260904192014 | 63 | 64 | 0.9 | 2.6 | 0.00 | 0.07 | 0.07 | 70 | 1016.5 |
| 20260904191510 | 63 | 110 | 0.0 | 2.6 | 0.00 | 0.07 | 0.07 | 71 | 1016.2 |
| 20260904191007 | 62 | 33 | 1.7 | 2.6 | 0.00 | 0.07 | 0.07 | 71 | 1016.2 |
| 20260904190502 | 62 | 82 | 0.0 | 2.6 | 0.00 | 0.07 | 0.07 | 73 | 1016.2 |
| 20260904185958 | 61 | 54 | 0.9 | 1.7 | 0.00 | 0.07 | 0.07 | 74 | 1016.2 |
| 20260904185454 | 60 | 89 | 1.7 | 2.6 | 0.00 | 0.07 | 0.07 | 74 | 1016.2 |
| 20260904184948 | 62 | 346 | 3.5 | 3.5 | 0.00 | 0.07 | 0.07 | 73 | 1016.2 |
| 20260904184443 | 62 | 81 | 0.9 | 1.7 | 0.00 | 0.07 | 0.07 | 72 | 1016.2 |
| 20260904183938 | 62 | 228 | 0.9 | 2.6 | 0.00 | 0.07 | 0.07 | 72 | 1016.2 |
| 20260904183433 | 62 | 262 | 0.9 | 2.6 | 0.00 | 0.07 | 0.07 | 73 | 1016.2 |
| 20260904182929 | 61 | 100 | 0.0 | 1.7 | 0.00 | 0.07 | 0.07 | 75 | 1016.2 |
| 20260904182424 | 61 | 92 | 0.0 | 0.0 | 0.00 | 0.07 | 0.07 | 75 | 1015.8 |
| 20260904181919 | 61 | 42 | 0.0 | 1.7 | 0.00 | 0.07 | 0.07 | 76 | 1015.8 |
| 20260904181414 | 62 | 309 | 1.7 | 1.7 | 0.00 | 0.07 | 0.07 | 75 | 1015.8 |
| 20260904180909 | 62 | 113 | 0.9 | 1.7 | 0.00 | 0.07 | 0.07 | 77 | 1015.8 |
| 20260904180404 | 61 | 136 | 0.0 | 0.9 | 0.00 | 0.07 | 0.07 | 77 | 1015.8 |
| 20260904175903 | 61 | 72 | 0.9 | 1.7 | 0.00 | 0.07 | 0.07 | 78 | 1015.8 |
| 20260904175402 | 62 | 161 | 0.9 | 0.9 | 0.00 | 0.07 | 0.07 | 77 | 1015.8 |
| 20260904174856 | 63 | 83 | 1.7 | 1.7 | 0.00 | 0.07 | 0.07 | 77 | 1015.8 |
| 20260904174353 | 62 | 81 | 0.0 | 0.9 | 0.00 | 0.07 | 0.07 | 76 | 1015.8 |
| 20260904173849 | 62 | 111 | 0.0 | 0.9 | 0.00 | 0.07 | 0.07 | 78 | 1015.8 |
| 20260904173344 | 62 | 63 | 0.9 | 0.9 | 0.00 | 0.07 | 0.07 | 77 | 1015.8 |
| 20260904172840 | 60 | 78 | 0.9 | 0.9 | 0.00 | 0.07 | 0.07 | 79 | 1015.8 |
| 20260904172339 | 60 | 78 | 0.0 | 1.7 | 0.00 | 0.07 | 0.07 | 80 | 1015.8 |
| 20260904171839 | 61 | 97 | 0.0 | 0.9 | 0.00 | 0.07 | 0.07 | 80 | 1015.8 |
| 20260904171334 | 61 | 251 | 0.9 | 2.6 | 0.00 | 0.07 | 0.07 | 80 | 1015.8 |
| 20260904170831 | 60 | 191 | 0.0 | 1.7 | 0.00 | 0.07 | 0.07 | 81 | 1015.8 |
| 20260904170326 | 60 | 179 | 0.0 | 0.9 | 0.00 | 0.07 | 0.07 | 83 | 1015.8 |
| 20260904165821 | 59 | 136 | 0.0 | 1.7 | 0.00 | 0.07 | 0.07 | 85 | 1015.8 |
| 20260904165319 | 58 | 159 | 0.9 | 0.9 | 0.00 | 0.07 | 0.07 | 85 | 1015.8 |
| 20260904164815 | 58 | 114 | 0.0 | 0.9 | 0.00 | 0.07 | 0.07 | 86 | 1015.8 |
| 20260904164309 | 57 | 136 | 1.7 | 1.7 | 0.00 | 0.07 | 0.07 | 87 | 1015.8 |
| 20260904163806 | 57 | 188 | 1.7 | 2.6 | 0.00 | 0.07 | 0.07 | 88 | 1016.2 |
| 20260904163306 | 57 | 100 | 0.0 | 1.7 | 0.00 | 0.07 | 0.07 | 88 | 1015.8 |
| 20260904162805 | 56 | 96 | 0.9 | 0.9 | 0.00 | 0.07 | 0.07 | 89 | 1016.2 |
| 20260904162300 | 56 | 100 | 0.0 | 0.0 | 0.00 | 0.07 | 0.07 | 89 | 1015.8 |
| 20260904161755 | 56 | 208 | 0.0 | 1.7 | 0.00 | 0.07 | 0.07 | 90 | 1015.8 |
| 20260904161250 | 56 | 158 | 0.9 | 1.7 | 0.00 | 0.07 | 0.07 | 91 | 1015.8 |
| 20260904160746 | 55 | 77 | 0.0 | 0.0 | 0.00 | 0.07 | 0.07 | 91 | 1015.8 |
| 20260904160242 | 55 | 73 | 0.0 | 0.9 | 0.00 | 0.07 | 0.07 | 92 | 1015.8 |
| 20260904155741 | 55 | 72 | 0.0 | 0.0 | 0.00 | 0.07 | 0.07 | 93 | 1015.8 |
| 20260904155240 | 55 | 72 | 0.0 | 0.0 | 0.00 | 0.07 | 0.07 | 93 | 1015.8 |
| 20260904154738 | 55 | 72 | 0.0 | 0.0 | 0.00 | 0.07 | 0.07 | 93 | 1015.8 |
| 20260904154233 | 54 | 72 | 0.0 | 0.0 | 0.00 | 0.07 | 0.07 | 93 | 1015.8 |
| 20260904153729 | 54 | 72 | 0.0 | 0.0 | 0.00 | 0.07 | 0.07 | 93 | 1015.5 |
| 20260904153225 | 54 | 72 | 0.0 | 0.9 | 0.00 | 0.07 | 0.07 | 94 | 1015.5 |
| 20260904152721 | 54 | 72 | 0.0 | 0.0 | 0.00 | 0.07 | 0.07 | 94 | 1015.2 |
| 20260904152216 | 54 | 74 | 0.0 | 0.0 | 0.00 | 0.07 | 0.07 | 94 | 1015.2 |
| 20260904151711 | 53 | 74 | 0.9 | 1.7 | 0.00 | 0.07 | 0.07 | 94 | 1015.2 |
| 20260904151209 | 53 | 74 | 0.0 | 0.9 | 0.00 | 0.07 | 0.07 | 94 | 1015.2 |
| 20260904150705 | 54 | 74 | 0.0 | 0.9 | 0.00 | 0.07 | 0.07 | 94 | 1015.2 |
| 20260904150201 | 53 | 74 | 0.0 | 0.9 | 0.00 | 0.07 | 0.07 | 94 | 1015.2 |
| 20260904145659 | 53 | 74 | 0.0 | 0.9 | 0.00 | 0.07 | 0.07 | 94 | 1015.2 |
| 20260904145154 | 53 | 98 | 0.0 | 0.9 | 0.00 | 0.07 | 0.07 | 94 | 1015.2 |
| 20260904144649 | 53 | 104 | 0.0 | 0.9 | 0.07 | 0.07 | 0.07 | 94 | 1015.2 |
| 20260904144145 | 53 | 95 | 0.9 | 0.9 | 0.07 | 0.07 | 0.07 | 94 | 1014.8 |
| 20260904143641 | 52 | 97 | 0.0 | 0.0 | 0.00 | 0.06 | 0.06 | 94 | 1014.8 |
| 20260904143137 | 52 | 109 | 0.0 | 0.0 | 0.05 | 0.06 | 0.06 | 94 | 1014.8 |
| 20260904142634 | 52 | 109 | 0.0 | 0.0 | 0.05 | 0.06 | 0.06 | 94 | 1015.2 |
| 20260904142129 | 52 | 109 | 0.0 | 0.9 | 0.07 | 0.05 | 0.05 | 94 | 1015.2 |
| 20260904141624 | 52 | 103 | 0.0 | 0.9 | 0.14 | 0.05 | 0.05 | 94 | 1014.8 |
| 20260904141119 | 52 | 6 | 0.9 | 1.7 | 0.12 | 0.04 | 0.04 | 94 | 1015.2 |
| 20260904140610 | 52 | 93 | 0.9 | 0.9 | 0.05 | 0.03 | 0.03 | 94 | 1014.8 |
| 20260904140109 | 52 | 178 | 0.9 | 0.9 | 0.00 | 0.02 | 0.02 | 94 | 1015.2 |
| 20260904135608 | 52 | 155 | 0.9 | 0.9 | 0.00 | 0.02 | 0.02 | 94 | 1014.8 |
| 20260904135105 | 52 | 152 | 0.9 | 0.9 | 0.00 | 0.02 | 0.02 | 93 | 1014.8 |
| 20260904134600 | 52 | 155 | 0.9 | 0.9 | 0.00 | 0.02 | 0.02 | 93 | 1014.8 |
| 20260904134054 | 52 | 154 | 0.0 | 0.0 | 0.00 | 0.02 | 0.02 | 93 | 1014.8 |
| 20260904133549 | 52 | 154 | 0.0 | 0.9 | 0.00 | 0.02 | 0.02 | 93 | 1014.8 |
| 20260904133045 | 52 | 154 | 0.0 | 0.9 | 0.00 | 0.02 | 0.02 | 93 | 1014.5 |
| 20260904132539 | 52 | 155 | 0.0 | 0.0 | 0.00 | 0.02 | 0.02 | 93 | 1014.5 |
| 20260904132039 | 52 | 154 | 0.0 | 0.9 | 0.00 | 0.02 | 0.02 | 93 | 1014.5 |
| 20260904131538 | 52 | 165 | 0.0 | 0.0 | 0.07 | 0.02 | 0.02 | 93 | 1014.5 |
| 20260904131034 | 51 | 170 | 0.9 | 0.9 | 0.07 | 0.02 | 0.02 | 93 | 1014.5 |